Date String (YYYY-MM-DD hh:mm:ss) UTC,Instrument flags,Ambient pressure (hPa),Sample flow (lpm),Bypass flow (lpm),Sample temperature (°C),Ambient temperature (°C),ASC tube jacket temperature (°C),LED temperature (°C),Box temperature (°C),Sample RH (%),Span deviation,Mass concentration (μg/m³),Mass concentration (μg/m³),Mass concentration (μg/m³)
DateTimeUTC,F1_M11,P_M11,Q1_M11,Q2_M11,T1_M11,T2_M11,T3_M11,T4_M11,T5_M11,U1_M11,ZSPAN_M11,X0_M11,X2_M11,X1_M11
2022-01-01 19:00:00,,0820.9,4.99,0.00,22.9,22.7,00.0,31.8,24.7,06.4,0000.0,0000.44,0000.14,0000.01
2022-01-01 19:01:00,,0820.9,4.99,0.00,23.0,23.5,00.0,31.9,24.9,06.5,0000.0,0000.54,0000.14,0000.01
2022-01-01 19:02:00,,0820.9,5.01,0.00,23.1,23.6,00.0,31.9,25.0,06.5,0000.0,0000.64,0000.13,0000.01
2022-01-01 19:03:00,,0820.8,5.00,0.00,23.1,23.4,00.0,31.9,25.0,06.5,0000.0,0000.58,0000.10,0000.01
2022-01-01 19:04:00,,0820.8,5.00,0.00,23.2,23.3,00.0,31.9,25.0,06.3,0000.0,0000.50,0000.09,0000.01
2022-01-01 19:05:00,,0820.8,4.99,0.00,23.1,23.1,00.0,31.9,24.9,06.3,0000.0,0000.44,0000.08,0000.01
2022-01-01 19:06:00,,0820.8,5.01,0.00,23.1,23.0,00.0,31.9,24.9,06.4,0000.0,0000.56,0000.10,0000.01
2022-01-01 19:07:00,,0820.8,4.99,0.00,23.1,22.9,00.0,32.0,24.9,06.3,0000.0,0000.60,0000.11,0000.02
2022-01-01 19:08:00,,0820.8,5.00,0.00,23.1,22.8,00.0,32.0,24.9,06.3,0000.0,0000.88,0000.12,0000.02
2022-01-01 19:09:00,,0820.8,5.02,0.00,23.1,22.7,00.0,32.0,24.8,06.4,0000.0,0001.05,0000.13,0000.02
2022-01-01 19:10:00,,0820.8,5.00,0.00,23.1,22.6,00.0,32.0,24.8,06.3,0000.0,0001.11,0000.14,0000.02
2022-01-01 19:11:00,,0820.7,5.02,0.00,23.1,22.5,00.0,32.0,24.8,06.3,0000.0,0001.16,0000.16,0000.02
2022-01-01 19:12:00,,0820.7,5.00,0.00,23.1,22.5,00.0,32.0,24.8,06.2,0000.0,0001.06,0000.15,0000.02
2022-01-01 19:13:00,,0820.7,4.99,0.00,23.0,22.5,00.0,32.0,24.8,06.3,0000.0,0000.92,0000.15,0000.02
2022-01-01 19:14:00,,0820.7,4.99,0.00,23.0,22.4,00.0,32.0,24.8,06.2,0000.0,0000.94,0000.17,0000.02
2022-01-01 19:15:00,,0820.6,5.00,0.00,23.0,22.4,00.0,32.0,24.7,06.2,0000.0,0001.12,0000.21,0000.02
2022-01-01 19:16:00,,0820.6,5.01,0.00,23.0,22.4,00.0,32.0,24.7,06.3,0000.0,0001.15,0000.22,0000.02
2022-01-01 19:17:00,,0820.6,4.98,0.00,23.0,22.3,00.0,31.9,24.7,06.2,0000.0,0001.15,0000.20,0000.02
2022-01-01 19:18:00,,0820.6,5.00,0.00,23.0,22.3,00.0,31.9,24.7,06.3,0000.0,0001.95,0000.19,0000.02
2022-01-01 19:19:00,,0820.7,5.01,0.00,22.9,22.3,00.0,31.9,24.7,06.3,0000.0,0002.00,0000.19,0000.02
2022-01-01 19:20:00,,0820.7,4.99,0.00,22.9,22.3,00.0,31.9,24.7,06.2,0000.0,0001.84,0000.19,0000.02
2022-01-01 19:21:00,,0820.7,5.02,0.00,22.9,22.2,00.0,31.9,24.6,06.2,0000.0,0002.37,0000.18,0000.02
2022-01-01 19:22:00,,0820.7,4.99,0.00,22.9,22.2,00.0,31.9,24.6,06.2,0000.0,0002.75,0000.16,0000.02
2022-01-01 19:23:00,,0820.7,5.00,0.00,22.9,22.2,00.0,31.9,24.6,06.2,0000.0,0002.76,0000.16,0000.02
2022-01-01 19:24:00,,0820.7,5.00,0.00,22.9,22.2,00.0,31.9,24.6,06.2,0000.0,0002.89,0000.17,0000.02
2022-01-01 19:25:00,,0820.6,5.01,0.00,22.9,22.2,00.0,31.9,24.6,06.2,0000.0,0002.90,0000.15,0000.02
2022-01-01 19:26:00,,0820.6,4.99,0.00,22.9,22.3,00.0,31.9,24.6,06.0,0000.0,0002.79,0000.12,0000.02
2022-01-01 19:27:00,,0820.6,5.00,0.00,23.0,23.0,00.0,31.9,24.8,05.9,0000.0,0002.76,0000.11,0000.02
2022-01-01 19:28:00,,0820.6,5.01,0.00,23.1,23.6,00.0,31.9,25.0,06.0,0000.0,0003.79,0000.10,0000.02
2022-01-01 19:29:00,,0820.6,4.99,0.00,23.2,23.5,00.0,32.0,25.0,06.1,0000.0,0003.01,0000.09,0000.02
2022-01-01 19:30:00,,0820.6,5.01,0.00,23.2,23.3,00.0,32.0,25.0,05.9,0000.0,0002.88,0000.11,0000.02
2022-01-01 19:31:00,,0820.6,5.00,0.00,23.2,23.2,00.0,32.0,25.0,05.8,0000.0,0002.89,0000.12,0000.02
2022-01-01 19:32:00,,0820.6,4.99,0.00,23.2,23.1,00.0,32.0,25.0,05.6,0000.0,0003.41,0000.14,0000.02
2022-01-01 19:33:00,,0820.6,5.00,0.00,23.2,23.0,00.0,32.0,25.0,05.6,0000.0,0004.68,0000.16,0000.02
2022-01-01 19:34:00,,0820.6,4.99,0.00,23.2,22.9,00.0,32.0,24.9,05.9,0000.0,0004.84,0000.16,0000.02
2022-01-01 19:35:00,,0820.5,5.01,0.00,23.2,22.8,00.0,32.0,24.9,06.0,0000.0,0004.70,0000.15,0000.02
2022-01-01 19:36:00,,0820.6,4.99,0.00,23.2,22.7,00.0,32.1,24.9,06.0,0000.0,0004.66,0000.15,0000.02
2022-01-01 19:37:00,,0820.6,5.00,0.00,23.2,22.7,00.0,32.1,24.9,05.9,0000.0,0004.73,0000.14,0000.02
2022-01-01 19:38:00,,0820.6,5.00,0.00,23.2,22.6,00.0,32.1,24.9,05.7,0000.0,0005.21,0000.15,0000.02
2022-01-01 19:39:00,,0820.6,5.00,0.00,23.2,22.6,00.0,32.1,24.9,06.0,0000.0,0003.98,0000.15,0000.02
2022-01-01 19:40:00,,0820.6,4.99,0.00,23.1,22.5,00.0,32.1,24.9,06.3,0000.0,0003.81,0000.14,0000.02
2022-01-01 19:41:00,,0820.6,5.01,0.00,23.1,22.5,00.0,32.1,24.9,06.3,0000.0,0003.73,0000.12,0000.02
2022-01-01 19:42:00,,0820.6,5.00,0.00,23.1,22.5,00.0,32.1,24.9,06.1,0000.0,0004.81,0000.12,0000.02
2022-01-01 19:43:00,,0820.7,4.99,0.00,23.1,22.4,00.0,32.1,24.9,06.2,0000.0,0003.82,0000.09,0000.02
2022-01-01 19:44:00,,0820.6,5.00,0.00,23.1,22.4,00.0,32.1,24.9,06.2,0000.0,0002.31,0000.08,0000.02
2022-01-01 19:45:00,,0820.7,4.99,0.00,23.1,22.4,00.0,32.1,24.8,06.3,0000.0,0002.21,0000.11,0000.01
2022-01-01 19:46:00,,0820.6,5.01,0.00,23.1,22.4,00.0,32.0,24.8,06.1,0000.0,0002.56,0000.13,0000.02
2022-01-01 19:47:00,,0820.6,4.98,0.00,23.1,22.3,00.0,32.0,24.8,06.1,0000.0,0003.28,0000.13,0000.02
2022-01-01 19:48:00,,0820.6,5.00,0.00,23.1,22.3,00.0,32.0,24.8,06.2,0000.0,0003.11,0000.12,0000.02
2022-01-01 19:49:00,,0820.6,5.00,0.00,23.0,22.2,00.0,32.0,24.7,06.3,0000.0,0002.68,0000.12,0000.02
2022-01-01 19:50:00,,0820.6,5.00,0.00,23.0,22.1,00.0,32.0,24.7,06.4,0000.0,0002.67,0000.12,0000.02
2022-01-01 19:51:00,,0820.6,5.00,0.00,23.0,22.1,00.0,32.0,24.6,06.4,0000.0,0002.67,0000.12,0000.02
2022-01-01 19:52:00,,0820.6,5.00,0.00,22.9,22.1,00.0,32.0,24.6,06.2,0000.0,0002.67,0000.12,0000.02
2022-01-01 19:53:00,,0820.6,5.00,0.00,22.9,22.1,00.0,32.0,24.6,06.3,0000.0,0001.46,0000.11,0000.02
2022-01-01 19:54:00,,0820.6,5.00,0.00,22.9,22.0,00.0,31.9,24.6,06.4,0000.0,0001.44,0000.14,0000.02
2022-01-01 19:55:00,,0820.6,4.99,0.00,22.9,22.0,00.0,31.9,24.6,06.4,0000.0,0001.40,0000.14,0000.02
2022-01-01 19:56:00,,0820.6,4.99,0.00,22.9,22.0,00.0,31.9,24.6,06.4,0000.0,0001.29,0000.09,0000.01
2022-01-01 19:57:00,,0820.6,5.01,0.00,22.8,21.9,00.0,31.9,24.5,06.1,0000.0,0000.88,0000.08,0000.01
2022-01-01 19:58:00,,0820.6,4.99,0.00,22.8,21.9,00.0,31.9,24.5,06.5,0000.0,0000.62,0000.08,0000.01
2022-01-01 19:59:00,,0820.6,5.00,0.00,22.8,22.0,00.0,31.9,24.6,06.4,0000.0,0001.40,0000.08,0000.01
